TimeCDT,TemperatureF,Dew PointF,Humidity,Sea Level PressureIn,VisibilityMPH,Wind Direction,Wind SpeedMPH,Gust SpeedMPH,PrecipitationIn,Events,Conditions,WindDirDegrees,DateUTC
12:56 AM,61.9,61.0,97,30.01,10.0,Calm,Calm,-,N/A,,Clear,0,2013-05-09 05:56:00
1:56 AM,61.0,59.0,93,30.01,10.0,Calm,Calm,-,N/A,,Clear,0,2013-05-09 06:56:00
2:56 AM,61.9,59.0,90,30.00,10.0,SSE,3.5,-,N/A,,Clear,150,2013-05-09 07:56:00
3:56 AM,61.0,59.0,93,30.01,10.0,South,3.5,-,N/A,,Clear,170,2013-05-09 08:56:00
5:56 AM,61.0,59.0,93,30.02,10.0,SE,3.5,-,N/A,,Clear,140,2013-05-09 10:56:00
6:56 AM,63.0,61.9,96,30.03,10.0,South,4.6,-,N/A,,Overcast,170,2013-05-09 11:56:00
7:56 AM,64.9,61.9,90,30.04,10.0,South,5.8,-,N/A,,Mostly Cloudy,170,2013-05-09 12:56:00
8:56 AM,66.9,61.9,84,30.04,10.0,South,6.9,-,0.00,,Mostly Cloudy,170,2013-05-09 13:56:00
9:56 AM,73.9,63.9,71,30.04,10.0,SSE,9.2,-,N/A,,Mostly Cloudy,160,2013-05-09 14:56:00
10:56 AM,79.0,63.9,60,30.04,10.0,SW,9.2,-,N/A,,Scattered Clouds,230,2013-05-09 15:56:00
11:56 AM,79.9,63.0,56,30.04,10.0,SSW,11.5,-,N/A,,Scattered Clouds,200,2013-05-09 16:56:00
12:56 PM,81.0,61.9,52,30.02,10.0,SSW,13.8,-,N/A,,Mostly Cloudy,210,2013-05-09 17:56:00
1:56 PM,77.0,61.0,58,30.01,10.0,SW,19.6,26.5,0.00,Rain,Light Rain,220,2013-05-09 18:56:00
2:56 PM,79.0,59.0,50,29.99,10.0,South,12.7,20.7,0.00,,Clear,190,2013-05-09 19:56:00
3:56 PM,77.9,63.0,60,29.94,10.0,South,12.7,-,N/A,,Clear,190,2013-05-09 20:56:00
4:56 PM,77.0,63.9,64,29.94,10.0,South,6.9,-,N/A,Thunderstorm,Partly Cloudy,190,2013-05-09 21:56:00
5:56 PM,77.0,63.0,62,29.93,10.0,South,11.5,-,N/A,Thunderstorm,Thunderstorm,170,2013-05-09 22:56:00
6:14 PM,78.8,62.6,57,29.95,10.0,WSW,10.4,-,N/A,Thunderstorm,Thunderstorm,240,2013-05-09 23:14:00
6:30 PM,75.2,62.6,65,29.95,10.0,SW,10.4,-,N/A,,Mostly Cloudy,220,2013-05-09 23:30:00
6:56 PM,73.9,64.9,73,29.94,6.0,SSW,11.5,-,0.00,Rain,Light Rain,210,2013-05-09 23:56:00
7:56 PM,68.9,63.9,84,29.93,10.0,South,6.9,-,0.00,,Clear,180,2013-05-10 00:56:00
8:56 PM,66.9,63.9,90,29.95,10.0,South,4.6,-,N/A,,Mostly Cloudy,190,2013-05-10 01:56:00
9:56 PM,66.9,64.9,93,29.95,10.0,South,8.1,-,N/A,,Clear,170,2013-05-10 02:56:00
10:56 PM,64.9,63.0,93,29.95,10.0,South,8.1,-,N/A,,Clear,180,2013-05-10 03:56:00
11:56 PM,66.9,63.9,90,29.95,10.0,South,8.1,-,N/A,,Mostly Cloudy,190,2013-05-10 04:56:00